Denver Centennial, CO

6:32 PM MDT on June 28, 2017 (GMT -0600)
Centennial

Weather History for KAPA - February, 2014

Change the Weather History Date:

Wednesday, February 26, 2014

  Actual Average Record
Temperature  
Mean Temperature 30 °F -  
Max Temperature 50 °F 41 °F 64 °F (2004)
Min Temperature 9 °F 19 °F -4 °F (2002)
Degree Days  
Heating Degree Days 35    
Month to date heating degree days 941  
Moisture  
Dew Point 15 °F    
Average Humidity 49    
Maximum Humidity 76    
Minimum Humidity 22    
Precipitation  
Precipitation 0.00 in - - ()
Month to date precipitation 0.09  
Year to date precipitation 0.85  
Sea Level Pressure  
Sea Level Pressure 30.11 in    
Wind  
Wind Speed 7 mph (SSE)    
Max Wind Speed 16 mph    
Max Gust Speed 19 mph    
Visibility 10 miles    
Events      
Averages and records for this station are not official NWS values.
T = Trace of Precipitation, MM = Missing Value Source: NWS Daily Summary

Daily Weather History Graph

Daily Weather History Graph

Search for Another Location

Airport or City:

Trip Planner

Search our weather history database for the weather conditions in past years. The results will help you decide how hot, cold, wet, or windy it might be!

Date:

Astronomy

Feb. 26, 2014 Rise Set
Actual Time 6:36 AM MST 5:48 PM MST
Civil Twilight 6:09 AM MST 6:15 PM MST
Nautical Twilight 5:38 AM MST 6:46 PM MST
Astronomical Twilight 5:07 AM MST 7:17 PM MST
Moon 4:24 AM MST (2/26) 3:06 PM MST (2/26)
Length of Visible Light 12h 05m
Length of Day
11h 11m
Waning Crescent, 9% of the Moon is Illuminated
Feb 26
Waning Crescent
Mar 1
New
Mar 8
First Quarter
Mar 16
Full
Mar 23
Last Quarter

Hourly Weather History & Observations

Time (MST) Temp. Windchill Dew Point Humidity Pressure Visibility Wind Dir Wind Speed Gust Speed Precip Events Conditions
12:53 AM 10.9 °F 0.2 °F 5.0 °F 77% 30.39 in 10.0 mi South 6.9 mph - N/A   Partly Cloudy
1:53 AM 10.0 °F -0.9 °F 3.9 °F 76% 30.36 in 10.0 mi South 6.9 mph - N/A   Partly Cloudy
2:53 AM 12.9 °F -0.2 °F 6.1 °F 74% 30.27 in 10.0 mi SSE 10.4 mph - N/A   Clear
3:53 AM 15.1 °F 1.1 °F 8.1 °F 74% 30.22 in 10.0 mi SSW 12.7 mph - N/A   Clear
4:53 AM 19.9 °F 7.9 °F 10.9 °F 68% 30.16 in 10.0 mi SSW 11.5 mph - N/A   Clear
5:53 AM 19.0 °F 7.5 °F 10.9 °F 71% 30.16 in 10.0 mi ESE 10.4 mph - N/A   Clear
6:53 AM 21.9 °F 12.5 °F 12.0 °F 66% 30.13 in 10.0 mi SSE 8.1 mph - N/A   Partly Cloudy
7:53 AM 25.0 °F 16.3 °F 17.1 °F 72% 30.14 in 10.0 mi SE 8.1 mph - N/A   Partly Cloudy
8:53 AM 28.0 °F 22.8 °F 17.1 °F 63% 30.17 in 10.0 mi SE 4.6 mph - N/A   Partly Cloudy
9:53 AM 33.1 °F 27.7 °F 19.9 °F 59% 30.16 in 10.0 mi North 5.8 mph - N/A   Partly Cloudy
10:53 AM 33.1 °F 27.7 °F 19.9 °F 59% 30.17 in 10.0 mi NNW 5.8 mph - N/A   Clear
11:53 AM 37.9 °F 35.5 °F 21.0 °F 51% 30.14 in 10.0 mi Variable 3.5 mph - N/A   Partly Cloudy
12:53 PM 42.1 °F - 19.0 °F 40% 30.09 in 10.0 mi Calm Calm - N/A   Partly Cloudy
1:53 PM 46.0 °F 42.5 °F 16.0 °F 30% 30.06 in 10.0 mi ENE 6.9 mph - N/A   Partly Cloudy
2:53 PM 48.9 °F - 15.1 °F 26% 30.01 in 10.0 mi Variable 3.5 mph - N/A   Partly Cloudy
3:53 PM 50.0 °F - 14.0 °F 24% 29.99 in 10.0 mi NNE 5.8 mph - N/A   Partly Cloudy
4:53 PM 48.9 °F - 12.9 °F 24% 29.96 in 10.0 mi Calm Calm - N/A   Partly Cloudy
5:53 PM 43.0 °F 41.3 °F 18.0 °F 37% 30.00 in 10.0 mi ENE 3.5 mph - N/A   Partly Cloudy
6:53 PM 36.0 °F 30.3 °F 18.0 °F 48% 30.03 in 10.0 mi SW 6.9 mph - N/A   Partly Cloudy
7:53 PM 28.9 °F 21.1 °F 19.0 °F 67% 30.04 in 10.0 mi SSW 8.1 mph - N/A   Clear
8:53 PM 30.9 °F 23.5 °F 17.1 °F 57% 30.01 in 10.0 mi South 8.1 mph - N/A   Clear
9:53 PM 28.0 °F 21.7 °F 17.1 °F 63% 30.00 in 10.0 mi SSE 5.8 mph - N/A   Clear
10:53 PM 30.0 °F 23.2 °F 16.0 °F 56% 29.97 in 10.0 mi SSE 6.9 mph - N/A   Partly Cloudy
11:53 PM 27.0 °F 19.5 °F 15.1 °F 61% 29.94 in 10.0 mi South 6.9 mph - N/A   Partly Cloudy